Location: Karcze
(52.0945°N, 22.4786°E)
Time: 18:34:53
(UTC+00:00)

A-11 Canister half - Pass Details

Date: 05 August 2021
Orbit: 1515 x 1685 km, 47.2° (Epoch: 20 September)

Event Time Altitude Azimuth Distance (km) Brightness Sun altitude
Rises 15:20:40 0° 238° (WSW) 4,770 12.6 24.7°
Reaches altitude 10° 15:23:46 10° 235° (SW) 3,809 12.2 24.2°
Maximum altitude 15:33:11 57° 160° (SSE) 1,883 9.7 22.8°
Drops below altitude 10° 15:42:56 10° 86° (E) 3,933 10.6 21.3°
Sets 15:46:11 0° 82° (E) 4,933 11.1 20.8°
